Location: Newark
(43.0000°N, 1.6781°W)
Time: 11:19:51
(UTC+00:00)

SR - Visible Passes

Search period start: 27 September 2022 00:00
Search period end: 07 October 2022 00:00
Orbit: 573 x 879 km, 66.7° (Epoch: 26 September)

Date Brightness Start Highest point End Pass type
(mag) Time Alt. Az. Time Alt. Az. Time Alt. Az.
27 Sep ? 05:15:37 10° N 05:18:37 14° NNE 05:21:30 10° ENE visible
29 Sep ? 05:16:38 10° N 05:20:47 21° NE 05:24:42 10° E visible
30 Sep ? 04:27:13 10° N 04:29:54 14° NNE 04:32:30 10° ENE visible
01 Oct ? 05:17:53 10° NNW 05:22:48 32° NE 05:27:19 10° ESE visible
02 Oct ? 04:28:08 10° N 04:32:06 20° NE 04:35:50 10° E visible
03 Oct ? 03:38:50 10° N 03:41:11 13° NNE 03:43:28 10° ENE visible
03 Oct ? 05:19:18 10° NNW 05:24:37 54° NE 05:29:27 10° SE visible
04 Oct ? 04:29:20 10° NNW 04:34:07 30° NE 04:38:31 10° ESE visible
04 Oct ? 20:39:54 10° SW 20:40:12 12° SW 20:40:12 12° SW visible
05 Oct ? 03:39:38 10° N 03:43:23 18° NE 03:46:55 10° E visible
05 Oct ? 05:20:53 10° NNW 05:26:16 87° WSW 05:31:08 10° SSE visible
05 Oct ? 19:49:54 10° SSW 19:54:01 43° SSE 19:54:01 43° SSE visible
05 Oct ? 21:32:56 10° WSW 21:33:34 13° WSW 21:33:34 13° WSW visible
06 Oct ? 02:50:28 10° N 02:52:26 12° NNE 02:54:21 10° NE visible
06 Oct ? 04:30:43 10° NNW 04:35:58 49° NE 04:40:44 10° SE visible
06 Oct ? 19:00:37 10° SSE 19:05:38 30° ESE 19:07:46 24° ENE visible
06 Oct ? 20:41:48 10° SW 20:47:18 49° WNW 20:47:18 49° WNW visible
